TimeEDT,TemperatureF,Dew PointF,Humidity,Sea Level PressureIn,VisibilityMPH,Wind Direction,Wind SpeedMPH,Gust SpeedMPH,PrecipitationIn,Events,Conditions,WindDirDegrees,DateUTC
9:55 AM,-9999,-9999,N/A,-9999,-9999.0,North,-9999.0,-,N/A,,Unknown,0,2012-10-09 13:55:00
10:15 AM,55.4,53.6,94,30.17,8.0,NNE,6.9,-,N/A,,Overcast,30,2012-10-09 14:15:00
10:35 AM,55.4,53.6,94,30.18,3.0,NNE,9.2,16.1,N/A,,Overcast,20,2012-10-09 14:35:00
10:55 AM,55.4,53.6,94,30.18,3.0,NNE,12.7,-,N/A,,Overcast,30,2012-10-09 14:55:00
11:15 AM,55.4,53.6,94,30.17,3.0,NE,10.4,16.1,N/A,,Overcast,40,2012-10-09 15:15:00
11:35 AM,55.4,53.6,94,30.17,4.0,NNE,12.7,-,N/A,,Overcast,30,2012-10-09 15:35:00
11:55 AM,57.2,53.6,88,30.16,5.0,NE,12.7,17.3,N/A,,Overcast,40,2012-10-09 15:55:00
12:15 PM,57.2,55.4,94,30.15,3.0,NNE,10.4,-,N/A,,Overcast,30,2012-10-09 16:15:00
12:35 PM,57.2,55.4,94,30.15,3.0,NE,12.7,16.1,N/A,,Overcast,40,2012-10-09 16:35:00
12:55 PM,57.2,55.4,94,30.14,2.5,NNE,9.2,-,N/A,,Overcast,30,2012-10-09 16:55:00
1:15 PM,57.2,55.4,94,30.13,3.0,NNE,9.2,-,N/A,,Overcast,30,2012-10-09 17:15:00
1:35 PM,57.2,55.4,94,30.13,4.0,NE,12.7,-,N/A,,Overcast,40,2012-10-09 17:35:00
1:55 PM,57.2,55.4,94,30.12,5.0,NE,10.4,-,N/A,,Overcast,40,2012-10-09 17:55:00
2:15 PM,57.2,55.4,94,30.11,3.0,NNE,12.7,-,N/A,,Overcast,30,2012-10-09 18:15:00
2:35 PM,57.2,55.4,94,30.11,4.0,NNE,12.7,-,N/A,,Overcast,30,2012-10-09 18:35:00
2:55 PM,57.2,55.4,94,30.11,6.0,NNE,8.1,-,N/A,,Overcast,30,2012-10-09 18:55:00
3:15 PM,57.2,55.4,94,30.11,7.0,NNE,10.4,-,N/A,,Overcast,30,2012-10-09 19:15:00
3:35 PM,57.2,55.4,94,30.11,4.0,NNE,8.1,-,N/A,,Overcast,30,2012-10-09 19:35:00
3:55 PM,57.2,55.4,94,30.11,2.5,NNE,8.1,-,N/A,,Overcast,30,2012-10-09 19:55:00
4:15 PM,57.2,55.4,94,30.11,3.0,NE,9.2,-,N/A,,Overcast,40,2012-10-09 20:15:00
4:35 PM,57.2,55.4,94,30.10,4.0,NE,9.2,-,N/A,,Overcast,40,2012-10-09 20:35:00
4:55 PM,57.2,55.4,94,30.10,8.0,NE,9.2,-,N/A,,Overcast,40,2012-10-09 20:55:00
5:15 PM,57.2,55.4,94,30.10,10.0,NE,8.1,-,N/A,,Overcast,40,2012-10-09 21:15:00
5:35 PM,57.2,55.4,94,30.10,10.0,NNE,6.9,-,N/A,,Overcast,30,2012-10-09 21:35:00
5:55 PM,57.2,55.4,94,30.10,10.0,NE,8.1,-,N/A,,Overcast,40,2012-10-09 21:55:00
6:15 PM,57.2,55.4,94,30.10,8.0,NE,8.1,-,N/A,,Overcast,40,2012-10-09 22:15:00
6:35 PM,57.2,55.4,94,30.10,4.0,NE,8.1,-,N/A,,Overcast,40,2012-10-09 22:35:00
6:55 PM,57.2,55.4,94,30.10,5.0,NE,8.1,-,N/A,,Overcast,40,2012-10-09 22:55:00
7:15 PM,57.2,55.4,94,30.09,6.0,NE,9.2,-,0.01,,Overcast,40,2012-10-09 23:15:00
7:35 PM,57.2,55.4,94,30.09,5.0,NE,10.4,16.1,0.02,,Overcast,50,2012-10-09 23:35:00
7:55 PM,57.2,55.4,94,30.09,9.0,NE,9.2,16.1,0.03,,Overcast,50,2012-10-09 23:55:00
8:15 PM,57.2,55.4,94,30.09,6.0,NE,10.4,17.3,0.01,,Overcast,40,2012-10-10 00:15:00
8:35 PM,57.2,55.4,94,30.09,4.0,NE,10.4,-,0.01,,Overcast,50,2012-10-10 00:35:00
8:55 PM,57.2,55.4,94,30.09,3.0,NE,9.2,-,0.02,,Overcast,40,2012-10-10 00:55:00
9:15 PM,57.2,55.4,94,30.09,4.0,NE,10.4,-,0.01,,Overcast,50,2012-10-10 01:15:00
9:35 PM,57.2,55.4,94,30.08,7.0,NE,8.1,-,0.01,,Overcast,50,2012-10-10 01:35:00
9:55 PM,57.2,55.4,94,30.08,7.0,NE,11.5,-,0.02,,Overcast,50,2012-10-10 01:55:00
10:15 PM,57.2,55.4,94,30.08,8.0,NE,9.2,-,N/A,,Overcast,50,2012-10-10 02:15:00
10:35 PM,57.2,57.2,100,30.08,5.0,ENE,8.1,-,0.01,,Overcast,70,2012-10-10 02:35:00
10:55 PM,59.0,57.2,94,30.07,3.0,ENE,11.5,19.6,0.03,,Overcast,70,2012-10-10 02:55:00
11:15 PM,59.0,57.2,94,30.07,3.0,ENE,10.4,-,0.02,,Overcast,70,2012-10-10 03:15:00
11:35 PM,59.0,57.2,94,30.06,3.0,ENE,10.4,-,0.04,,Mostly Cloudy,70,2012-10-10 03:35:00
11:55 PM,59.0,57.2,94,30.06,5.0,ENE,8.1,-,0.04,,Overcast,70,2012-10-10 03:55:00